Flag for Tajikistan Weather past 2 weeks in Dushanbe, Tajikistan

Now
30 °F

Ice fog.


Feels Like: 27 °F
Forecast: 23 / 41 °F
Wind: 3 mph from East

Location: Dushanbe Airport

Current Time: Jan 27, 2015 at 3:30:33 AM

Latest Report: Jan 27, 2015 at 2:30 AM


Visibility: 2 mi

Pressure: 30.39 "Hg

Humidity: 93%

Dew point: 28 °F

Location of DushanbeLocation

Historic Weather in Dushanbe — Graph

°F

Dushanbe temperature yesterday

Maximum temperature yesterday: 36 °F (at 2:00 PM)
Minimum temperature yesterday: 30 °F (at 1:30 AM)
Average temperature yesterday: 32 °F

Past Weeks' High & Low Weather Summary

 TemperatureHumidityPressure
High59 °F (Jan 17, 2:30 PM)100% (Jan 12, 3:30 AM)30.51 "Hg (Jan 12, 3:30 AM)
Low28 °F (Jan 25, 7:30 AM)18% (Jan 17, 2:00 PM)29.98 "Hg (Jan 19, 7:30 PM)
Average39 °F78%30.23 "Hg
* Reported Jan 12 1:00 AM — Jan 27 1:30 AM, Dushanbe, Weather by CustomWeather, © 2014

Note: Actual official high and low records may vary slightly from our data, if they occured in-between our weather recording intervals... More about our weather records

Advertising

Dushanbe weather history for previous 24 hours

 ConditionsComfort  
Time TempWeatherWind HumidityBarometerVisibility
1:30 AM
Jan 27
30 °FLight snow. Ice fog.3 mph93%30.42 "Hg2 mi
1:00 AM30 °FLight snow. Ice fog.1 mph93%30.42 "Hg2 mi
12:30 AM30 °FLight snow. Ice fog.1 mph93%30.45 "Hg1 mi
12:00 AM30 °FLight snow. Ice fog.1 mph93%30.45 "Hg1 mi
11:30 PM
Jan 26
30 °FLight snow. Ice fog.1 mph93%30.45 "Hg2 mi
11:00 PM30 °FLight snow. Mostly cloudy.3 mph93%30.45 "Hg2 mi
10:30 PM30 °FLight snow. Ice fog.3 mph93%30.45 "Hg2 mi
10:00 PM30 °FLight snow. Ice fog.6 mph93%30.45 "Hg2 mi
9:30 PM30 °FLight snow. Ice fog.3 mph93%30.45 "Hg3 mi
9:00 PM30 °FLight snow. Ice fog.3 mph93%30.48 "Hg3 mi
8:30 PM30 °FIce fog.3 mph93%30.45 "Hg3 mi
8:00 PM32 °FMostly cloudy.6 mph80%30.45 "Hg4 mi
7:30 PM32 °FIce fog.6 mph80%30.45 "Hg3 mi
7:00 PM32 °FIce fog.6 mph80%30.45 "Hg3 mi
6:30 PM32 °FMostly cloudy.3 mph75%30.45 "Hg4 mi
6:00 PM34 °FMostly cloudy.6 mph70%30.42 "Hg4 mi
4:00 PM36 °FMore clouds than sun.1 mph65%30.39 "Hg4 mi
3:30 PM34 °FMore clouds than sun.3 mph70%30.36 "Hg4 mi
3:00 PM34 °FFog.6 mph75%30.36 "Hg3 mi
2:30 PM36 °FFog.1 mph65%30.36 "Hg2 mi
2:00 PM36 °FFog.No wind65%30.36 "Hg2 mi
1:30 PM34 °FFog.No wind70%30.36 "Hg2 mi
1:00 PM34 °FFog.No wind75%30.39 "Hg2 mi
12:30 PM34 °FFog.No wind70%30.39 "Hg2 mi
12:00 PM34 °FFog.1 mph70%30.39 "Hg2 mi
11:30 AM32 °FIce fog.1 mph75%30.39 "Hg2 mi
11:00 AM32 °FLight snow. Ice fog.1 mph75%30.39 "Hg2 mi
10:30 AM32 °FIce fog.3 mph75%30.39 "Hg2 mi
10:00 AM30 °FLight snow. Ice fog.3 mph80%30.39 "Hg2 mi
9:30 AM30 °FIce fog.1 mph86%30.39 "Hg2 mi
9:00 AM30 °FIce fog.1 mph86%30.39 "Hg1 mi
8:30 AM30 °FIce fog.1 mph80%30.36 "Hg2 mi
8:00 AM30 °FIce fog.1 mph86%30.36 "Hg1 mi
7:30 AM30 °FIce fog.No wind80%30.36 "Hg2 mi
6:30 AM30 °FIce fog.No wind86%30.33 "Hg2 mi
6:00 AM30 °FIce fog.No wind86%30.33 "Hg2 mi
5:30 AM30 °FIce fog.No wind86%30.33 "Hg2 mi
5:00 AM30 °FIce fog.1 mph86%30.33 "Hg2 mi
4:30 AM30 °FIce fog.1 mph93%30.33 "Hg1 mi
4:00 AM30 °FIce fog.No wind93%30.33 "Hg1 mi
3:30 AM30 °FIce fog.No wind86%30.33 "Hg1 mi
3:00 AM30 °FIce fog.No wind86%30.33 "Hg1 mi
Weather by CustomWeather, © 2014

See weather overviewHow to use our weather pages